| time (UTC) | temp C | wind direction | speed KPH | gust KPH | rain 1hr cm | rain 24hr cm | rain mn cm | humidity % | barometer mb |
| 20260504033504 | 7 | 199 | 0.0 | 0.0 | 0.00 | 0.00 | 0.00 | 68 | 1012.7 |
| 20260504033001 | 6 | 199 | 0.0 | 0.0 | 0.00 | 0.00 | 0.00 | 69 | 1012.7 |
| 20260504032457 | 6 | 199 | 0.0 | 0.0 | 0.00 | 0.00 | 0.00 | 69 | 1012.7 |
| 20260504031954 | 7 | 199 | 0.0 | 0.0 | 0.00 | 0.00 | 0.00 | 68 | 1012.7 |
| 20260504031451 | 6 | 199 | 0.0 | 0.0 | 0.00 | 0.00 | 0.00 | 68 | 1012.7 |
| 20260504030948 | 6 | 199 | 0.0 | 0.0 | 0.00 | 0.00 | 0.00 | 67 | 1012.6 |
| 20260504030445 | 6 | 199 | 0.0 | 0.0 | 0.00 | 0.00 | 0.00 | 67 | 1012.6 |
| 20260504025940 | 7 | 199 | 0.0 | 0.0 | 0.00 | 0.00 | 0.00 | 66 | 1012.4 |
| 20260504025437 | 7 | 199 | 0.0 | 0.0 | 0.00 | 0.00 | 0.00 | 65 | 1012.6 |
| 20260504024935 | 7 | 199 | 0.0 | 0.0 | 0.00 | 0.00 | 0.00 | 64 | 1012.8 |
| 20260504024432 | 7 | 199 | 0.0 | 0.0 | 0.00 | 0.00 | 0.00 | 65 | 1012.8 |
| 20260504023929 | 7 | 199 | 0.0 | 0.0 | 0.00 | 0.00 | 0.00 | 66 | 1012.7 |
| 20260504023425 | 7 | 199 | 0.0 | 0.0 | 0.00 | 0.00 | 0.00 | 64 | 1012.7 |
| 20260504022921 | 7 | 199 | 0.0 | 0.0 | 0.00 | 0.00 | 0.00 | 62 | 1012.7 |
| 20260504022417 | 7 | 199 | 0.0 | 0.0 | 0.00 | 0.00 | 0.00 | 62 | 1012.8 |
| 20260504021914 | 7 | 199 | 0.0 | 0.0 | 0.00 | 0.00 | 0.00 | 62 | 1012.8 |
| 20260504021412 | 7 | 199 | 0.0 | 0.0 | 0.00 | 0.00 | 0.00 | 61 | 1012.6 |
| 20260504020909 | 7 | 199 | 0.0 | 0.0 | 0.00 | 0.00 | 0.00 | 62 | 1012.8 |
| 20260504020405 | 8 | 199 | 0.0 | 0.0 | 0.00 | 0.00 | 0.00 | 60 | 1012.6 |
| 20260504015901 | 8 | 199 | 0.0 | 0.0 | 0.00 | 0.00 | 0.00 | 59 | 1012.7 |
| 20260504015357 | 8 | 199 | 0.0 | 0.0 | 0.00 | 0.00 | 0.00 | 58 | 1012.6 |
| 20260504014854 | 8 | 199 | 0.0 | 0.0 | 0.00 | 0.00 | 0.00 | 56 | 1012.6 |
| 20260504014350 | 8 | 199 | 0.0 | 0.0 | 0.00 | 0.00 | 0.00 | 57 | 1012.5 |
| 20260504013847 | 8 | 199 | 0.0 | 0.0 | 0.00 | 0.00 | 0.00 | 56 | 1012.4 |
| 20260504013345 | 8 | 199 | 0.0 | 0.0 | 0.00 | 0.00 | 0.00 | 56 | 1012.3 |
| 20260504012841 | 8 | 199 | 0.0 | 0.0 | 0.00 | 0.00 | 0.00 | 55 | 1012.5 |
| 20260504012339 | 9 | 199 | 0.0 | 0.0 | 0.00 | 0.00 | 0.00 | 55 | 1012.3 |
| 20260504011837 | 10 | 199 | 0.0 | 0.0 | 0.00 | 0.00 | 0.00 | 52 | 1012.3 |
| 20260504011333 | 10 | 199 | 0.0 | 0.0 | 0.00 | 0.00 | 0.00 | 53 | 1012.4 |
| 20260504010829 | 10 | 199 | 0.0 | 0.0 | 0.00 | 0.00 | 0.00 | 53 | 1012.3 |
| 20260504010325 | 10 | 199 | 0.0 | 0.0 | 0.00 | 0.00 | 0.00 | 51 | 1012.2 |
| 20260504005822 | 10 | 199 | 0.0 | 0.0 | 0.00 | 0.00 | 0.00 | 49 | 1011.9 |
| 20260504005319 | 10 | 199 | 0.0 | 0.0 | 0.00 | 0.00 | 0.00 | 47 | 1012.2 |
| 20260504004816 | 10 | 199 | 0.0 | 0.0 | 0.00 | 0.00 | 0.00 | 47 | 1012.2 |
| 20260504004314 | 11 | 199 | 0.0 | 0.0 | 0.00 | 0.00 | 0.00 | 44 | 1012.0 |
| 20260504003810 | 11 | 199 | 0.0 | 0.0 | 0.00 | 0.00 | 0.00 | 42 | 1011.9 |
| 20260504003307 | 12 | 199 | 0.0 | 0.0 | 0.00 | 0.00 | 0.00 | 42 | 1011.8 |
| 20260504002803 | 12 | 199 | 0.0 | 0.0 | 0.00 | 0.00 | 0.00 | 40 | 1011.7 |
| 20260504002300 | 12 | 200 | 0.0 | 0.0 | 0.00 | 0.00 | 0.00 | 39 | 1011.7 |
| 20260504001757 | 13 | 197 | 0.0 | 0.0 | 0.00 | 0.00 | 0.00 | 38 | 1011.8 |
| 20260504001254 | 13 | 188 | 0.0 | 1.6 | 0.00 | 0.00 | 0.00 | 38 | 1011.5 |
| 20260504000751 | 13 | 337 | 1.6 | 1.6 | 0.00 | 0.00 | 0.00 | 38 | 1011.5 |
| 20260504000248 | 13 | 353 | 0.0 | 1.6 | 0.00 | 0.00 | 0.00 | 37 | 1011.4 |
| 20260503235746 | 13 | 210 | 0.0 | 0.0 | 0.00 | 0.00 | 0.00 | 38 | 1011.2 |
| 20260503235243 | 13 | 352 | 0.0 | 0.0 | 0.00 | 0.00 | 0.00 | 37 | 1011.5 |
| 20260503234741 | 13 | 305 | 1.6 | 3.2 | 0.00 | 0.00 | 0.00 | 36 | 1011.2 |
| 20260503234239 | 13 | 65 | 0.0 | 0.0 | 0.00 | 0.00 | 0.00 | 36 | 1011.2 |
| 20260503233736 | 13 | 307 | 0.0 | 0.0 | 0.00 | 0.00 | 0.00 | 36 | 1011.1 |
| 20260503233231 | 13 | 14 | 1.6 | 1.6 | 0.00 | 0.00 | 0.00 | 36 | 1011.0 |
| 20260503232723 | 14 | 336 | 0.0 | 0.0 | 0.00 | 0.00 | 0.00 | 35 | 1011.0 |
| 20260503232220 | 14 | 302 | 6.4 | 9.7 | 0.00 | 0.00 | 0.00 | 34 | 1011.0 |
| 20260503231718 | 14 | 330 | 1.6 | 1.6 | 0.00 | 0.00 | 0.00 | 34 | 1010.9 |
| 20260503231215 | 14 | 109 | 0.0 | 1.6 | 0.00 | 0.00 | 0.00 | 36 | 1010.9 |
| 20260503230711 | 15 | 109 | 0.0 | 0.0 | 0.00 | 0.00 | 0.00 | 34 | 1011.0 |
| 20260503230208 | 15 | 307 | 1.6 | 3.2 | 0.00 | 0.00 | 0.00 | 34 | 1010.8 |
| 20260503225705 | 15 | 16 | 0.0 | 1.6 | 0.00 | 0.00 | 0.00 | 34 | 1010.9 |
| 20260503225200 | 15 | 292 | 4.8 | 12.9 | 0.00 | 0.00 | 0.00 | 33 | 1010.8 |
| 20260503224657 | 15 | 326 | 6.4 | 8.0 | 0.00 | 0.00 | 0.00 | 32 | 1010.5 |
| 20260503224155 | 15 | 261 | 4.8 | 9.7 | 0.00 | 0.00 | 0.00 | 32 | 1010.7 |
| 20260503223653 | 15 | 345 | 1.6 | 3.2 | 0.00 | 0.00 | 0.00 | 33 | 1010.5 |
| 20260503223149 | 15 | 331 | 6.4 | 9.7 | 0.00 | 0.00 | 0.00 | 32 | 1010.5 |
| 20260503222646 | 15 | 331 | 8.0 | 9.7 | 0.00 | 0.00 | 0.00 | 32 | 1010.6 |
| 20260503222144 | 15 | 318 | 8.0 | 11.3 | 0.00 | 0.00 | 0.00 | 31 | 1010.8 |
| 20260503221642 | 15 | 16 | 8.0 | 12.9 | 0.00 | 0.00 | 0.00 | 32 | 1010.7 |
| 20260503221139 | 15 | 357 | 6.4 | 8.0 | 0.00 | 0.00 | 0.00 | 31 | 1010.6 |
| 20260503220636 | 15 | 357 | 1.6 | 1.6 | 0.00 | 0.00 | 0.00 | 32 | 1010.5 |
| 20260503220133 | 15 | 46 | 1.6 | 1.6 | 0.00 | 0.00 | 0.00 | 32 | 1010.6 |
| 20260503215630 | 15 | 28 | 1.6 | 1.6 | 0.00 | 0.00 | 0.00 | 31 | 1010.7 |
| 20260503215126 | 15 | 320 | 9.7 | 9.7 | 0.00 | 0.00 | 0.00 | 30 | 1010.7 |
| 20260503214625 | 15 | 323 | 1.6 | 3.2 | 0.00 | 0.00 | 0.00 | 31 | 1010.6 |
| 20260503214121 | 15 | 71 | 4.8 | 4.8 | 0.00 | 0.00 | 0.00 | 30 | 1010.7 |
| 20260503213620 | 15 | 327 | 6.4 | 11.3 | 0.00 | 0.00 | 0.00 | 31 | 1010.6 |
| 20260503213116 | 15 | 64 | 1.6 | 1.6 | 0.00 | 0.00 | 0.00 | 31 | 1010.5 |
| 20260503212614 | 15 | 7 | 6.4 | 9.7 | 0.00 | 0.00 | 0.00 | 30 | 1010.4 |
| 20260503212111 | 15 | 288 | 8.0 | 11.3 | 0.00 | 0.00 | 0.00 | 30 | 1010.7 |
| 20260503211609 | 15 | 352 | 12.9 | 16.1 | 0.00 | 0.00 | 0.00 | 30 | 1010.4 |
| 20260503211103 | 15 | 55 | 8.0 | 12.9 | 0.00 | 0.00 | 0.00 | 30 | 1010.8 |
| 20260503210600 | 15 | 346 | 1.6 | 3.2 | 0.00 | 0.00 | 0.00 | 31 | 1010.7 |
| 20260503210056 | 16 | 349 | 8.0 | 11.3 | 0.00 | 0.00 | 0.00 | 29 | 1010.6 |
| 20260503205553 | 16 | 21 | 1.6 | 3.2 | 0.00 | 0.00 | 0.00 | 29 | 1010.6 |
| 20260503205049 | 16 | 357 | 1.6 | 3.2 | 0.00 | 0.00 | 0.00 | 30 | 1010.5 |
| 20260503204546 | 16 | 333 | 4.8 | 4.8 | 0.00 | 0.00 | 0.00 | 30 | 1010.6 |
| 20260503204043 | 16 | 324 | 3.2 | 4.8 | 0.00 | 0.00 | 0.00 | 31 | 1010.5 |
| 20260503203541 | 15 | 11 | 4.8 | 9.7 | 0.00 | 0.00 | 0.00 | 32 | 1010.7 |
| 20260503203037 | 15 | 308 | 3.2 | 3.2 | 0.00 | 0.00 | 0.00 | 31 | 1010.6 |
| 20260503202536 | 15 | 5 | 3.2 | 4.8 | 0.00 | 0.00 | 0.00 | 33 | 1010.8 |
| 20260503202033 | 15 | 43 | 4.8 | 4.8 | 0.00 | 0.00 | 0.00 | 32 | 1010.9 |
| 20260503201532 | 15 | 352 | 3.2 | 4.8 | 0.00 | 0.00 | 0.00 | 33 | 1010.9 |
| 20260503201028 | 15 | 279 | 6.4 | 8.0 | 0.00 | 0.00 | 0.00 | 32 | 1011.0 |
| 20260503200524 | 15 | 17 | 8.0 | 11.3 | 0.00 | 0.00 | 0.00 | 32 | 1011.0 |
| 20260503200015 | 15 | 298 | 6.4 | 8.0 | 0.00 | 0.00 | 0.00 | 32 | 1011.2 |
| 20260503195512 | 15 | 312 | 3.2 | 3.2 | 0.00 | 0.00 | 0.00 | 33 | 1011.0 |
| 20260503195009 | 14 | 125 | 1.6 | 1.6 | 0.00 | 0.00 | 0.00 | 34 | 1011.1 |
| 20260503194506 | 15 | 67 | 4.8 | 4.8 | 0.00 | 0.00 | 0.00 | 32 | 1011.1 |
| 20260503194006 | 14 | 21 | 8.0 | 9.7 | 0.00 | 0.00 | 0.00 | 32 | 1011.1 |
| 20260503193502 | 13 | 62 | 1.6 | 3.2 | 0.00 | 0.00 | 0.00 | 36 | 1011.2 |
| 20260503192958 | 14 | 355 | 4.8 | 8.0 | 0.00 | 0.00 | 0.00 | 33 | 1011.4 |
| 20260503192455 | 13 | 303 | 8.0 | 11.3 | 0.00 | 0.00 | 0.00 | 33 | 1011.3 |
| 20260503191950 | 14 | 3 | 4.8 | 11.3 | 0.00 | 0.00 | 0.00 | 33 | 1011.5 |
| 20260503191448 | 15 | 278 | 3.2 | 3.2 | 0.00 | 0.00 | 0.00 | 34 | 1011.3 |
| 20260503190944 | 15 | 95 | 1.6 | 3.2 | 0.00 | 0.00 | 0.00 | 33 | 1011.3 |
| 20260503190442 | 15 | 357 | 3.2 | 4.8 | 0.00 | 0.00 | 0.00 | 33 | 1011.5 |
| 20260503185939 | 15 | 320 | 11.3 | 17.7 | 0.00 | 0.00 | 0.00 | 33 | 1011.5 |
| 20260503185435 | 13 | 319 | 8.0 | 17.7 | 0.00 | 0.00 | 0.00 | 35 | 1011.4 |
| 20260503184934 | 13 | 192 | 4.8 | 4.8 | 0.00 | 0.00 | 0.00 | 36 | 1011.4 |
| 20260503184431 | 14 | 56 | 6.4 | 8.0 | 0.00 | 0.00 | 0.00 | 36 | 1011.6 |
| 20260503183927 | 13 | 317 | 8.0 | 11.3 | 0.00 | 0.00 | 0.00 | 35 | 1011.7 |
| 20260503183424 | 13 | 175 | 4.8 | 4.8 | 0.00 | 0.00 | 0.00 | 36 | 1011.5 |
| 20260503182921 | 13 | 6 | 8.0 | 11.3 | 0.00 | 0.00 | 0.00 | 35 | 1011.8 |
| 20260503182420 | 13 | 59 | 1.6 | 1.6 | 0.00 | 0.00 | 0.00 | 37 | 1011.7 |
| 20260503181917 | 13 | 322 | 6.4 | 9.7 | 0.00 | 0.00 | 0.00 | 36 | 1011.6 |
| 20260503181413 | 13 | 213 | 3.2 | 4.8 | 0.00 | 0.00 | 0.00 | 37 | 1011.7 |
| 20260503180910 | 13 | 275 | 1.6 | 3.2 | 0.00 | 0.00 | 0.00 | 37 | 1011.5 |
| 20260503180408 | 13 | 255 | 4.8 | 8.0 | 0.00 | 0.00 | 0.00 | 37 | 1011.7 |
| 20260503175904 | 14 | 17 | 4.8 | 8.0 | 0.00 | 0.00 | 0.00 | 36 | 1011.5 |
| 20260503175403 | 13 | 156 | 1.6 | 3.2 | 0.00 | 0.00 | 0.00 | 41 | 1011.8 |
| 20260503174858 | 13 | 291 | 8.0 | 11.3 | 0.00 | 0.00 | 0.00 | 37 | 1011.8 |
| 20260503174356 | 12 | 303 | 3.2 | 4.8 | 0.00 | 0.00 | 0.00 | 39 | 1012.1 |
| 20260503173851 | 12 | 264 | 4.8 | 4.8 | 0.00 | 0.00 | 0.00 | 40 | 1012.0 |
| 20260503173347 | 13 | 19 | 4.8 | 8.0 | 0.00 | 0.00 | 0.00 | 40 | 1012.1 |
| 20260503172844 | 12 | 260 | 8.0 | 9.7 | 0.00 | 0.00 | 0.00 | 38 | 1012.2 |
| 20260503172342 | 12 | 338 | 11.3 | 17.7 | 0.00 | 0.00 | 0.00 | 40 | 1012.2 |
| 20260503171838 | 12 | 298 | 6.4 | 8.0 | 0.00 | 0.00 | 0.00 | 40 | 1012.2 |
| 20260503171335 | 11 | 221 | 4.8 | 8.0 | 0.00 | 0.00 | 0.00 | 42 | 1012.2 |
| 20260503170832 | 12 | 249 | 4.8 | 8.0 | 0.00 | 0.00 | 0.00 | 41 | 1012.5 |
| 20260503170329 | 12 | 237 | 4.8 | 8.0 | 0.00 | 0.00 | 0.00 | 42 | 1012.4 |
| 20260503150720 | 10 | 308 | 8.0 | 11.3 | 0.00 | 0.00 | 0.00 | 44 | 1012.7 |
| 20260503150217 | 10 | 47 | 3.2 | 4.8 | 0.00 | 0.00 | 0.00 | 46 | 1012.9 |
| 20260503140141 | 11 | 36 | 3.2 | 4.8 | 0.00 | 0.00 | 0.00 | 46 | 1012.7 |
| 20260503131111 | 10 | 37 | 4.8 | 8.0 | 0.00 | 0.00 | 0.00 | 52 | 1012.8 |
| 20260503130609 | 9 | 60 | 3.2 | 3.2 | 0.00 | 0.00 | 0.00 | 55 | 1012.7 |
| 20260503130106 | 9 | 44 | 3.2 | 3.2 | 0.00 | 0.00 | 0.00 | 55 | 1012.7 |
| 20260503110459 | 6 | 71 | 0.0 | 1.6 | 0.00 | 0.00 | 0.00 | 63 | 1012.1 |
| 20260503090344 | 6 | 31 | 3.2 | 4.8 | 0.00 | 0.00 | 0.00 | 59 | 1011.2 |
| 20260503081312 | 7 | 83 | 4.8 | 8.0 | 0.00 | 0.00 | 0.00 | 56 | 1011.1 |
| 20260503080808 | 7 | 42 | 1.6 | 1.6 | 0.00 | 0.00 | 0.00 | 57 | 1010.9 |
| 20260503080305 | 7 | 38 | 1.6 | 1.6 | 0.00 | 0.00 | 0.00 | 57 | 1010.9 |
| 20260503072742 | 7 | 57 | 1.6 | 1.6 | 0.00 | 0.00 | 0.00 | 56 | 1011.0 |
| 20260503072238 | 7 | 338 | 1.6 | 3.2 | 0.00 | 0.00 | 0.00 | 56 | 1011.1 |
| 20260503071735 | 7 | 109 | 1.6 | 1.6 | 0.00 | 0.00 | 0.00 | 56 | 1011.0 |
| 20260503071231 | 7 | 313 | 3.2 | 8.0 | 0.00 | 0.00 | 0.00 | 56 | 1010.8 |
| 20260503070728 | 7 | 300 | 0.0 | 1.6 | 0.00 | 0.00 | 0.00 | 56 | 1011.0 |
| 20260503070226 | 7 | 4 | 0.0 | 0.0 | 0.00 | 0.00 | 0.00 | 55 | 1011.0 |
| 20260503060151 | 8 | 343 | 1.6 | 1.6 | 0.00 | 0.00 | 0.00 | 53 | 1011.2 |
| 20260503054638 | 8 | 38 | 0.0 | 0.0 | 0.00 | 0.00 | 0.00 | 53 | 1011.0 |
| 20260503054135 | 8 | 7 | 1.6 | 1.6 | 0.00 | 0.00 | 0.00 | 51 | 1011.1 |
| 20260503053633 | 8 | 50 | 1.6 | 1.6 | 0.00 | 0.00 | 0.00 | 52 | 1011.2 |
| 20260503053132 | 8 | 62 | 0.0 | 1.6 | 0.00 | 0.00 | 0.00 | 51 | 1011.3 |
| 20260503052627 | 8 | 334 | 0.0 | 1.6 | 0.00 | 0.00 | 0.00 | 51 | 1011.1 |
| 20260503052124 | 9 | 90 | 0.0 | 0.0 | 0.00 | 0.00 | 0.00 | 51 | 1011.3 |
| 20260503051619 | 9 | 342 | 3.2 | 4.8 | 0.00 | 0.00 | 0.00 | 50 | 1011.4 |
| 20260503051118 | 9 | 60 | 0.0 | 1.6 | 0.00 | 0.00 | 0.00 | 50 | 1011.6 |
| 20260503050614 | 9 | 60 | 1.6 | 3.2 | 0.00 | 0.00 | 0.00 | 49 | 1011.4 |
| 20260503050110 | 9 | 320 | 0.0 | 0.0 | 0.00 | 0.00 | 0.00 | 51 | 1011.6 |
| 20260503045608 | 9 | 107 | 3.2 | 3.2 | 0.00 | 0.00 | 0.00 | 50 | 1011.6 |
| 20260503045105 | 9 | 277 | 1.6 | 1.6 | 0.00 | 0.00 | 0.00 | 50 | 1011.4 |
| 20260503044601 | 9 | 32 | 1.6 | 1.6 | 0.00 | 0.00 | 0.00 | 49 | 1011.6 |
| 20260503044059 | 9 | 51 | 1.6 | 1.6 | 0.00 | 0.00 | 0.00 | 50 | 1011.6 |
| 20260503043555 | 9 | 352 | 0.0 | 1.6 | 0.00 | 0.00 | 0.00 | 50 | 1011.8 |
| 20260503043052 | 9 | 67 | 1.6 | 1.6 | 0.00 | 0.00 | 0.00 | 49 | 1011.7 |
| 20260503042549 | 9 | 91 | 0.0 | 1.6 | 0.00 | 0.00 | 0.00 | 49 | 1011.8 |
| 20260503042045 | 10 | 39 | 1.6 | 1.6 | 0.00 | 0.00 | 0.00 | 49 | 1011.8 |
| 20260503041542 | 10 | 75 | 0.0 | 1.6 | 0.00 | 0.00 | 0.00 | 49 | 1011.6 |
| 20260503041040 | 10 | 326 | 1.6 | 3.2 | 0.00 | 0.00 | 0.00 | 49 | 1011.7 |
| 20260503040537 | 10 | 300 | 0.0 | 1.6 | 0.00 | 0.00 | 0.00 | 49 | 1011.5 |
| 20260503040034 | 10 | 15 | 3.2 | 3.2 | 0.00 | 0.03 | 0.03 | 48 | 1011.8 |
| 20260503035531 | 10 | 344 | 1.6 | 3.2 | 0.00 | 0.03 | 0.03 | 48 | 1011.6 |
| 20260503035028 | 10 | 11 | 0.0 | 1.6 | 0.00 | 0.03 | 0.03 | 48 | 1011.5 |
| 20260503034525 | 10 | 16 | 3.2 | 3.2 | 0.00 | 0.03 | 0.03 | 47 | 1011.8 |
| 20260503034022 | 10 | 98 | 1.6 | 3.2 | 0.00 | 0.03 | 0.03 | 47 | 1011.6 |